Weather in Staroye Rakomo

Russia / Novgorod Oblast     58°26′47″N   31°13′43″E
temp.,
°C
wind,
m/s
gust,
m/s
humid.,
%
clouds,
%
prec.,
mm/h
press.,
hPa
HPBL,
m
28 july, wed
wed2800:00+20ese3560100 0.0 101578
03:00+18sse3683100 0.0 1014152
06:00+18sse248698 0.0 1013137
09:00+21s3373100 0.0 1012392
12:00+25ssw3356100 0.0 1011855
15:00+22ssw1276100 0.8 1010227
18:00+20s2587100 0.1 1009243
21:00+19sse2493100 0.8 100779
29 july, thu
thu2900:00+18wsw2296100 3.1 100735
03:00+17wsw1195100 3.7 100621
06:00+17w259392 0.4 1006127
09:00+20w3677100 0.4 1005332
12:00+23sw3667100 0.6 1005933
15:00+26sw575082 0.7 10031858
18:00+24wsw47664 0.8 10021030
21:00+20wsw23809 0.9 100252
30 july, fri
fri3000:00+18wsw3583100 0.0 100396
03:00+17w388998 0.3 1003209
06:00+16wsw28925 0.0 1003216
09:00+19wsw488281 0.8 1003524
12:00+22wsw684443 0.7 10032034
15:00+21sw6948100 0.7 1002986
18:00+22sw5104698 0.0 10012160
21:00+17s497143 0.0 1001257
31 july, sat
sat3100:00+16ssw5146880 0.1 1000545
03:00+16ssw61365100 0.1 998851
06:00+14sw61386100 0.8 998940
09:00+17wsw5108219 1.2 999915
12:00+22wsw7105589 0.1 10001834
15:00+25w5104797 0.5 10002072
18:00+21wsw6107525 0.7 10021033
21:00+18wsw2591100 1.7 1002102
1 august, sun
sun100:00+16s2291100 0.2 100220
03:00+16ssw3589100 0.2 1002105
06:00+15ssw3695100 1.3 1001203
09:00+18sw478987 2.9 1001632
12:00+23sw695488 0.1 10011758
15:00+23wsw695294 0.1 10021783
18:00+22sw5957100 0.1 10031011
21:00+19wsw411600 0.1 1004428